STARLINK-34680

Last updated on Mon Sep 15 2025 00:02:06 GMT+0000 (Coordinated Universal Time)

1 65356U 25190F 25257.03255314 -.00067450 00000+0 -61859-3 0 9991 2 65356 53.1579 272.6119 0004735 134.1978 225.9429 15.67118066 2182
UTC large
Height (km)
Speed (km/s)
/
Latitude / Longitude
Inclination (degrees)
Orbital Period (minutes)
Azimuth
Elevation
Range (km)
Doppler Factor

Next 0 passes for location: London (51.5072 / 0.1276)

Sorry there are no passes over London.